Weather History for KPRN - November, 2012

Change the Weather History Date:

Wednesday, November 14, 2012

  Actual Average Record
Temperature  
Mean Temperature 48 °F -  
Max Temperature 57 °F 69 °F 84 °F (1993)
Min Temperature 39 °F 43 °F 25 °F (1968)
Degree Days  
Heating Degree Days 17    
Moisture  
Dew Point 43 °F    
Average Humidity 76    
Maximum Humidity 89    
Minimum Humidity 62    
Precipitation  
Precipitation 0.00 in - - ()
Sea Level Pressure  
Sea Level Pressure 30.25 in    
Wind  
Wind Speed 4 mph (NNE)    
Max Wind Speed 7 mph    
Max Gust Speed -    
Visibility 10 miles    
Events      
Averages and records for this station are not official NWS values.
T = Trace of Precipitation, MM = Missing Value Source: NWS Daily Summary

Daily Weather History Graph

Daily Weather History Graph

Search for Another Location

Airport or City:

Trip Planner

Search our weather history database for the weather conditions in past years. The results will help you decide how hot, cold, wet, or windy it might be!

Date:

Astronomy

Nov. 14, 2012 Rise Set
Actual Time 6:14 AM CST 4:47 PM CST
Civil Twilight 5:48 AM CST 5:13 PM CST
Nautical Twilight 5:19 AM CST 5:42 PM CST
Astronomical Twilight 4:50 AM CST 6:11 PM CST
Moon 6:59 AM CST (11/14) 5:39 PM CST (11/14)
Length of Visible Light 11h 24m
Length of Day
10h 32m
New Moon, 1% of the Moon is Illuminated
Nov 14
New Moon
Nov 20
First Quarter
Nov 28
Full
Dec 6
Last Quarter
Dec 13
New

Hourly Weather History & Observations

Time (CST) Temp. Windchill Dew Point Humidity Pressure Visibility Wind Dir Wind Speed Gust Speed Precip Events Conditions
12:56 AM 42.1 °F 39.2 °F 30.0 °F 62% 30.24 in 10.0 mi North 4.6 mph - N/A   Clear
1:56 AM 42.1 °F 40.2 °F 30.0 °F 62% 30.24 in 10.0 mi North 3.5 mph - N/A   Clear
2:56 AM 39.9 °F 36.7 °F 30.0 °F 68% 30.25 in 10.0 mi North 4.6 mph - N/A   Clear
3:56 AM 39.0 °F 34.0 °F 30.9 °F 73% 30.24 in 10.0 mi NNE 6.9 mph - N/A   Clear
4:56 AM 39.9 °F 36.7 °F 30.9 °F 70% 30.24 in 10.0 mi NNE 4.6 mph - N/A   Clear
5:45 AM 39.2 °F 37.0 °F 32.0 °F 75% 30.26 in 10.0 mi North 3.5 mph - N/A   Mostly Cloudy
5:56 AM 39.9 °F 37.8 °F 32.0 °F 73% 30.26 in 10.0 mi NNE 3.5 mph - N/A   Overcast
6:32 AM 42.8 °F 39.3 °F 33.8 °F 70% 30.26 in 10.0 mi NE 5.8 mph - N/A   Overcast
6:56 AM 43.0 °F 39.5 °F 37.0 °F 80% 30.27 in 10.0 mi NE 5.8 mph - N/A   Overcast
7:56 AM 44.1 °F 41.5 °F 41.0 °F 89% 30.28 in 10.0 mi ENE 4.6 mph - N/A   Overcast
8:56 AM 48.0 °F - 43.0 °F 83% 30.28 in 10.0 mi ENE 3.5 mph - N/A   Overcast
9:29 AM 50.0 °F - 44.6 °F 82% 30.27 in 10.0 mi NE 6.9 mph - N/A   Overcast
9:56 AM 51.1 °F - 45.0 °F 80% 30.28 in 10.0 mi North 3.5 mph - N/A   Overcast
10:56 AM 53.1 °F - 46.0 °F 77% 30.28 in 10.0 mi NNW 4.6 mph - N/A   Overcast
11:07 AM 53.6 °F - 46.4 °F 77% 30.27 in 10.0 mi NNW 4.6 mph - N/A   Overcast
11:56 AM 57.0 °F - 46.9 °F 69% 30.24 in 10.0 mi NE 6.9 mph - N/A   Overcast
12:56 PM 55.9 °F - 46.9 °F 72% 30.23 in 10.0 mi NW 3.5 mph - N/A   Overcast
1:34 PM 55.4 °F - 48.2 °F 77% 30.22 in 10.0 mi Calm Calm - N/A   Overcast
1:56 PM 57.0 °F - 48.0 °F 72% 30.21 in 10.0 mi North 3.5 mph - N/A   Overcast
2:56 PM 57.0 °F - 48.0 °F 72% 30.21 in 10.0 mi NNE 4.6 mph - N/A   Overcast
3:56 PM 55.9 °F - 48.0 °F 75% 30.22 in 10.0 mi North 3.5 mph - N/A   Overcast
4:56 PM 55.0 °F - 48.0 °F 77% 30.23 in 10.0 mi Calm Calm - N/A   Overcast
5:56 PM 55.0 °F - 48.0 °F 77% 30.25 in 10.0 mi North 3.5 mph - N/A   Overcast
6:56 PM 54.0 °F - 48.0 °F 80% 30.25 in 10.0 mi NNE 4.6 mph - N/A   Overcast
7:19 PM 53.6 °F - 48.2 °F 82% 30.24 in 10.0 mi NE 6.9 mph - N/A   Overcast
7:48 PM 53.6 °F - 48.2 °F 82% 30.25 in 10.0 mi East 3.5 mph - N/A   Overcast
7:56 PM 54.0 °F - 48.0 °F 80% 30.25 in 10.0 mi ENE 5.8 mph - N/A   Overcast
8:56 PM 53.1 °F - 46.9 °F 80% 30.25 in 10.0 mi NE 3.5 mph - N/A   Overcast
9:06 PM 53.6 °F - 46.4 °F 77% 30.25 in 10.0 mi ENE 3.5 mph - N/A   Overcast
9:56 PM 52.0 °F - 46.9 °F 83% 30.24 in 10.0 mi NE 4.6 mph - N/A   Overcast
10:56 PM 52.0 °F - 46.9 °F 83% 30.24 in 10.0 mi NE 3.5 mph - N/A   Overcast
11:56 PM 52.0 °F - 46.0 °F 80% 30.22 in 10.0 mi Calm Calm - N/A   Overcast